Location: Cussy
(47.0410°N, 4.6412°E)
Time: 13:58:21
(UTC+00:00)

OE (NEXTSAT) - Pass Details

Date: 30 November 2020
Orbit: 428 x 435 km, 46.0° (Epoch: 26 January)

Event Time Altitude Azimuth Distance (km) Brightness Sun altitude
Rises 17:31:36 0° 270° (W) 2,397 9.6 -16.0°
Reaches altitude 10° 17:33:44 10° 269° (W) 1,528 8.3 -16.3°
Maximum altitude 17:37:11 75° 183° (S) 448 4.3 -16.9°
Enters shadow 17:38:12 42° 108° (ESE) 623 4.7 -17.1°
